Sedona, AZ

3:37 AM MST on March 30, 2017 (GMT -0700)
Sedona

Weather History for KSEZ - May, 2013

Change the Weather History Date:

Thursday, May 23, 2013

  Actual Average Record
Temperature  
Mean Temperature 75 °F -  
Max Temperature 86 °F 85 °F 89 °F (2012)
Min Temperature 64 °F 50 °F 46 °F (2015)
Cooling Degree Days 10    
Growing Degree Days 25 (Base 50)    
Moisture  
Dew Point 24 °F    
Average Humidity 16    
Maximum Humidity 22    
Minimum Humidity 11    
Precipitation  
Precipitation 0.00 in - - ()
Sea Level Pressure  
Sea Level Pressure 29.95 in    
Wind  
Wind Speed 12 mph (South)    
Max Wind Speed 24 mph    
Max Gust Speed 34 mph    
Visibility 10 miles    
Events      
Averages and records for this station are not official NWS values.
T = Trace of Precipitation, MM = Missing Value Source: NWS Daily Summary

Daily Weather History Graph

Daily Weather History Graph

Search for Another Location

Airport or City:

Trip Planner

Search our weather history database for the weather conditions in past years. The results will help you decide how hot, cold, wet, or windy it might be!

Date:

Astronomy

May. 23, 2013 Rise Set
Actual Time 5:18 AM MST 7:29 PM MST
Civil Twilight 4:49 AM MST 7:58 PM MST
Nautical Twilight 4:15 AM MST 8:33 PM MST
Astronomical Twilight 3:37 AM MST 9:11 PM MST
Moon 6:09 PM MST (5/23) 4:02 AM MST (5/23)
Length of Visible Light 15h 08m
Length of Day
14h 11m
Waxing Gibbous, 97% of the Moon is Illuminated
May 23
Waxing Gibbous
May 24
Full
May 31
Last Quarter
Jun 8
New
Jun 16
First Quarter

Hourly Weather History & Observations

Time (MST) Temp. Dew Point Humidity Pressure Visibility Wind Dir Wind Speed Gust Speed Precip Events Conditions
12:15 AM 71.6 °F 21.2 °F 15% 29.88 in 10.0 mi South 11.5 mph - N/A   Clear
12:35 AM 69.8 °F 23.0 °F 17% 29.88 in 10.0 mi South 12.7 mph 20.7 mph N/A   Clear
12:55 AM 69.8 °F 23.0 °F 17% 29.89 in 10.0 mi South 10.4 mph 24.2 mph N/A   Clear
1:15 AM 69.8 °F 23.0 °F 17% 29.89 in 10.0 mi SSW 11.5 mph 17.3 mph N/A   Clear
1:35 AM 68.0 °F 21.2 °F 17% 29.89 in 10.0 mi SSW 6.9 mph 17.3 mph N/A   Clear
1:55 AM 68.0 °F 21.2 °F 17% 29.90 in 10.0 mi SSW 8.1 mph - N/A   Clear
2:15 AM 68.0 °F 21.2 °F 17% 29.91 in 10.0 mi SSW 3.5 mph - N/A   Clear
2:35 AM 68.0 °F 21.2 °F 17% 29.91 in 10.0 mi South 4.6 mph - N/A   Clear
2:55 AM 66.2 °F 23.0 °F 19% 29.91 in 10.0 mi SSE 6.9 mph - N/A   Clear
3:15 AM 64.4 °F 23.0 °F 21% 29.90 in 10.0 mi South 9.2 mph - N/A   Clear
3:35 AM 64.4 °F 23.0 °F 21% 29.90 in 10.0 mi SSE 15.0 mph - N/A   Clear
3:55 AM 64.4 °F 23.0 °F 21% 29.90 in 10.0 mi SSE 16.1 mph - N/A   Clear
4:15 AM 64.4 °F 24.8 °F 22% 29.90 in 10.0 mi South 13.8 mph 20.7 mph N/A   Clear
4:35 AM 64.4 °F 24.8 °F 22% 29.91 in 10.0 mi South 11.5 mph - N/A   Clear
4:55 AM 64.4 °F 23.0 °F 21% 29.91 in 10.0 mi South 12.7 mph 16.1 mph N/A   Clear
5:15 AM 64.4 °F 23.0 °F 21% 29.92 in 10.0 mi South 9.2 mph - N/A   Clear
5:35 AM 64.4 °F 23.0 °F 21% 29.93 in 10.0 mi South 8.1 mph - N/A   Clear
5:55 AM 64.4 °F 24.8 °F 22% 29.94 in 10.0 mi South 6.9 mph - N/A   Clear
6:15 AM 66.2 °F 24.8 °F 21% 29.94 in 10.0 mi South 11.5 mph - N/A   Clear
6:35 AM 68.0 °F 26.6 °F 21% 29.95 in 10.0 mi South 8.1 mph 16.1 mph N/A   Clear
6:55 AM 69.8 °F 26.6 °F 20% 29.95 in 10.0 mi South 9.2 mph - N/A   Clear
7:15 AM 69.8 °F 28.4 °F 21% 29.96 in 10.0 mi South 11.5 mph - N/A   Clear
7:35 AM 71.6 °F 28.4 °F 20% 29.97 in 10.0 mi South 13.8 mph 18.4 mph N/A   Clear
7:55 AM 73.4 °F 26.6 °F 18% 29.97 in 10.0 mi South 11.5 mph 23.0 mph N/A   Clear
8:15 AM 73.4 °F 26.6 °F 18% 29.97 in 10.0 mi South 12.7 mph 20.7 mph N/A   Clear
8:35 AM 73.4 °F 26.6 °F 18% 29.98 in 10.0 mi South 15.0 mph 19.6 mph N/A   Clear
8:55 AM 75.2 °F 26.6 °F 17% 29.98 in 10.0 mi South 13.8 mph 21.9 mph N/A   Clear
9:15 AM 77.0 °F 26.6 °F 16% 29.98 in 10.0 mi South 15.0 mph 20.7 mph N/A   Clear
9:35 AM 78.8 °F 26.6 °F 15% 29.98 in 10.0 mi SSE 18.4 mph 24.2 mph N/A   Clear
9:55 AM 78.8 °F 24.8 °F 14% 29.98 in 10.0 mi SSE 13.8 mph 21.9 mph N/A   Clear
10:15 AM 78.8 °F 23.0 °F 13% 29.98 in 10.0 mi South 21.9 mph 28.8 mph N/A   Clear
10:35 AM 78.8 °F 23.0 °F 13% 29.98 in 10.0 mi South 19.6 mph 28.8 mph N/A   Clear
10:55 AM 82.4 °F 26.6 °F 13% 29.98 in 10.0 mi SSE 19.6 mph 31.1 mph N/A   Clear
11:15 AM 80.6 °F 26.6 °F 14% 29.97 in 10.0 mi South 21.9 mph 27.6 mph N/A   Clear
11:35 AM 82.4 °F 26.6 °F 13% 29.97 in 10.0 mi South 16.1 mph 24.2 mph N/A   Clear
11:55 AM 82.4 °F 26.6 °F 13% 29.97 in 10.0 mi SSE 18.4 mph 25.3 mph N/A   Clear
12:15 PM 86.0 °F 26.6 °F 12% 29.97 in 10.0 mi South 21.9 mph 29.9 mph N/A   Clear
12:35 PM 82.4 °F 26.6 °F 13% 29.97 in 10.0 mi SSW 13.8 mph 27.6 mph N/A   Clear
12:55 PM 86.0 °F 26.6 °F 12% 29.97 in 10.0 mi South 10.4 mph 24.2 mph N/A   Clear
1:15 PM 84.2 °F 26.6 °F 12% 29.95 in 10.0 mi SSE 24.2 mph 33.4 mph N/A   Clear
1:35 PM 84.2 °F 26.6 °F 12% 29.95 in 10.0 mi South 19.6 mph 31.1 mph N/A   Clear
1:55 PM 84.2 °F 23.0 °F 11% 29.95 in 10.0 mi SSW 20.7 mph 32.2 mph N/A   Clear
2:15 PM 82.4 °F 24.8 °F 12% 29.95 in 10.0 mi South 19.6 mph 31.1 mph N/A   Clear
2:35 PM 82.4 °F 26.6 °F 13% 29.95 in 10.0 mi SW 11.5 mph 33.4 mph N/A   Clear
2:55 PM 80.6 °F 23.0 °F 12% 29.94 in 10.0 mi SSW 18.4 mph 28.8 mph N/A   Clear
3:15 PM 82.4 °F 24.8 °F 12% 29.94 in 10.0 mi SW 20.7 mph 33.4 mph N/A   Clear
3:35 PM 82.4 °F 26.6 °F 13% 29.94 in 10.0 mi South 21.9 mph 28.8 mph N/A   Clear
3:55 PM 80.6 °F 24.8 °F 13% 29.94 in 10.0 mi SW 12.7 mph 31.1 mph N/A   Clear
4:15 PM 82.4 °F 23.0 °F 11% 29.94 in 10.0 mi South 15.0 mph 29.9 mph N/A   Clear
4:35 PM 80.6 °F 23.0 °F 12% 29.93 in 10.0 mi SSW 23.0 mph 34.5 mph N/A   Clear
4:55 PM 82.4 °F 23.0 °F 11% 29.93 in 10.0 mi SW 16.1 mph 28.8 mph N/A   Clear
5:15 PM 80.6 °F 23.0 °F 12% 29.93 in 10.0 mi South 19.6 mph 31.1 mph N/A   Clear
5:35 PM 80.6 °F 23.0 °F 12% 29.93 in 10.0 mi South 20.7 mph 28.8 mph N/A   Clear
5:55 PM 78.8 °F 23.0 °F 13% 29.93 in 10.0 mi SW 18.4 mph 29.9 mph N/A   Clear
6:15 PM 78.8 °F 21.2 °F 12% 29.93 in 10.0 mi SW 17.3 mph 27.6 mph N/A   Clear
6:35 PM 78.8 °F 23.0 °F 13% 29.94 in 10.0 mi SSW 15.0 mph 26.5 mph N/A   Clear
6:55 PM 77.0 °F 23.0 °F 13% 29.94 in 10.0 mi SSW 13.8 mph 31.1 mph N/A   Clear
7:15 PM 77.0 °F 23.0 °F 13% 29.95 in 10.0 mi SSW 18.4 mph 24.2 mph N/A   Clear
7:35 PM 75.2 °F 23.0 °F 14% 29.95 in 10.0 mi SSW 13.8 mph 21.9 mph N/A   Clear
7:55 PM 73.4 °F 23.0 °F 15% 29.96 in 10.0 mi SSW 10.4 mph 18.4 mph N/A   Clear
8:15 PM 73.4 °F 23.0 °F 15% 29.96 in 10.0 mi SSW 10.4 mph 18.4 mph N/A   Clear
8:35 PM 73.4 °F 23.0 °F 15% 29.97 in 10.0 mi SSW 6.9 mph - N/A   Clear
8:55 PM 73.4 °F 24.8 °F 16% 29.97 in 10.0 mi SSW 9.2 mph - N/A   Clear
9:15 PM 73.4 °F 23.0 °F 15% 29.98 in 10.0 mi SW 9.2 mph - N/A   Clear
9:35 PM 71.6 °F 23.0 °F 16% 29.99 in 10.0 mi WSW 6.9 mph - N/A   Clear
9:55 PM 71.6 °F 23.0 °F 16% 29.99 in 10.0 mi SW 5.8 mph - N/A   Clear
10:15 PM 69.8 °F 23.0 °F 17% 29.99 in 10.0 mi SSW 5.8 mph - N/A   Clear
10:35 PM 69.8 °F 24.8 °F 18% 29.99 in 10.0 mi SSW 5.8 mph - N/A   Clear
10:55 PM 69.8 °F 24.8 °F 18% 29.99 in 10.0 mi SSW 4.6 mph - N/A   Clear
11:15 PM 69.8 °F 24.8 °F 18% 29.99 in 10.0 mi South 3.5 mph - N/A   Clear
11:35 PM 68.0 °F 24.8 °F 20% 29.99 in 10.0 mi SSE 5.8 mph - N/A   Clear
11:55 PM 68.0 °F 24.8 °F 20% 29.99 in 10.0 mi SSW 4.6 mph - N/A   Clear